Theta_e
296 296 297 302 302 301 300 300 301 302 302 302 300 298 299 298 295 292 295 299 300 302 309 315 318 320 323 323 323 326 327 328 329 329 328 328 329 329 331 331 331 332 333 335 336 337 337 337 337 338 339 340 342 344 346 347 348 348 350 349 348 348 347 347 347 347 348 348 349 349 350 349 348 349 348 349 349 348 349 348 347 347 347 347 347 348 349
298 298 298 301 301 301 301 302 301 301 301 301 302 301 302 300 299 299 300 300 302 305 312 317 320 323 325 325 325 326 326 326 328 328 327 327 328 329 330 331 332 333 334 335 336 337 337 336 336 337 338 339 341 342 344 346 347 348 349 348 348 348 347 348 348 348 348 349 348 348 348 348 348 349 348 348 347 346 346 346 347 349 348 347 346 346 346
295 296 302 300 301 300 299 299 300 301 301 302 302 303 305 306 303 305 305 304 305 308 314 317 319 322 324 323 322 323 325 326 327 327 327 328 329 330 332 332 333 334 335 336 336 336 336 335 336 337 338 339 340 342 343 344 344 345 347 346 346 347 346 344 345 348 349 349 349 348 348 348 349 348 348 348 347 346 345 345 345 347 348 345 345 345 345
291 295 297 299 300 300 299 297 298 298 299 298 299 301 304 304 302 303 304 301 302 307 318 320 320 321 321 320 320 319 322 325 327 327 328 328 328 329 329 330 331 333 335 336 336 336 337 337 336 336 337 338 339 340 341 342 343 345 345 344 343 343 343 344 344 344 346 347 348 348 348 348 348 348 349 348 348 347 345 344 344 345 346 345 345 345 346
287 292 297 296 294 293 293 294 297 299 299 300 303 306 309 310 305 303 300 300 303 309 319 317 318 320 321 321 320 318 322 326 327 327 327 327 328 329 330 330 331 333 333 335 336 337 339 338 337 337 338 338 338 340 341 342 344 344 345 344 342 340 341 343 344 344 344 345 346 347 348 348 349 349 348 347 347 347 345 345 345 344 344 345 344 345 345
288 291 297 296 292 285 287 295 301 305 304 304 303 303 306 309 309 304 305 306 310 316 317 316 316 318 320 322 322 323 324 324 326 328 328 328 329 331 332 333 333 334 335 335 336 339 340 340 341 341 341 339 340 342 342 343 342 343 342 342 342 341 342 343 343 343 344 344 345 346 346 347 347 347 347 347 347 347 347 347 345 344 345 344 345 345 345
290 293 293 292 286 287 295 301 306 308 307 308 305 305 307 309 311 312 311 313 314 317 318 318 318 320 323 327 327 328 330 329 328 328 329 330 330 331 332 332 333 334 335 336 335 336 338 341 342 342 340 341 341 341 342 341 342 341 341 341 342 342 342 342 343 343 343 345 345 344 344 346 346 346 346 346 346 346 346 346 345 345 345 344 345 347 347
290 289 287 283 283 290 297 302 306 311 310 309 305 303 305 311 313 313 311 310 314 316 317 319 321 323 325 327 329 330 331 332 331 330 330 331 332 332 333 333 333 334 335 335 335 336 340 340 339 340 340 341 341 341 342 341 341 341 340 340 341 342 342 343 343 344 344 344 344 343 344 344 344 344 345 345 345 346 347 346 346 347 346 347 347 346 347
288 287 285 288 292 296 300 301 305 306 302 304 301 296 298 305 313 313 311 312 315 317 318 321 323 323 323 322 323 329 330 330 331 332 332 333 333 334 334 335 334 335 336 337 336 339 337 338 338 339 340 342 341 341 340 340 341 340 340 340 340 342 342 343 344 344 345 344 343 344 344 344 344 344 343 343 343 347 346 345 345 345 345 346 347 348 350
289 287 287 287 288 286 289 295 303 308 309 310 306 303 301 306 313 316 313 313 315 318 320 322 321 320 318 314 317 325 330 331 330 332 333 335 335 335 334 334 335 335 336 338 341 339 337 337 338 339 341 341 340 339 339 339 339 339 340 339 340 341 342 343 345 345 345 344 343 344 343 343 343 344 344 344 343 348 345 344 343 342 342 342 343 347 349
288 287 284 283 285 287 293 297 303 309 311 312 309 301 297 303 312 316 316 314 315 319 320 320 319 312 307 306 310 318 326 328 331 331 332 333 334 335 334 333 333 334 335 338 339 338 337 337 337 338 338 339 338 337 337 337 338 338 337 338 339 340 341 343 345 345 345 344 344 343 343 343 344 343 343 343 344 346 344 341 340 342 345 341 342 342 343
290 285 284 284 287 289 300 300 304 309 312 311 304 292 291 301 314 316 316 315 315 317 319 320 317 311 305 306 312 324 329 329 331 331 330 330 331 333 334 335 336 336 337 336 338 338 337 337 338 338 338 337 338 336 335 335 334 335 336 337 339 341 341 342 344 345 345 345 345 344 343 344 344 344 345 344 343 342 341 341 341 341 343 340 339 339 340
293 293 285 288 291 300 305 306 308 310 313 305 295 289 295 305 314 316 316 316 317 317 317 319 316 317 312 314 318 327 327 327 327 330 331 331 332 332 333 334 338 335 336 336 336 337 336 337 339 339 338 336 335 336 335 334 334 335 337 338 340 340 340 340 341 343 344 344 344 344 344 344 345 346 346 344 343 341 340 340 341 340 340 339 339 334 333
289 286 289 288 289 296 305 309 310 314 304 293 290 300 305 312 314 316 317 316 317 318 318 318 317 316 318 322 327 326 325 324 325 328 329 331 332 333 335 336 336 335 335 335 336 337 338 339 339 338 337 337 336 335 335 336 337 337 338 339 339 339 339 339 341 342 343 343 344 344 344 344 344 344 344 344 343 341 341 340 339 339 339 339 334 330 329
292 286 286 285 286 301 309 310 307 308 300 297 299 307 317 318 317 317 314 316 316 318 316 317 318 324 326 324 324 324 323 324 325 326 328 329 329 330 331 332 335 336 333 332 332 334 338 340 340 340 340 338 339 338 336 337 338 339 339 340 340 339 339 338 339 340 342 344 344 342 343 344 342 341 341 341 340 340 338 337 337 337 336 332 328 326 325
287 287 287 287 292 299 307 305 299 303 305 308 305 313 314 316 316 315 314 314 317 318 319 319 324 325 323 321 321 322 324 325 325 326 328 328 329 330 331 333 334 334 331 331 330 333 336 339 340 340 339 337 337 335 334 337 338 338 337 338 339 339 340 339 339 340 342 342 341 341 341 339 338 337 337 338 338 338 337 337 335 334 331 328 327 325 322
292 291 291 295 298 303 308 308 306 306 313 312 311 313 315 317 317 313 318 317 316 319 323 324 324 321 320 321 321 322 322 324 324 325 326 327 328 328 329 330 332 333 331 329 330 331 332 334 336 337 338 337 335 333 335 336 336 335 335 336 335 334 334 335 335 335 334 334 334 335 338 339 336 336 335 335 334 335 336 335 334 332 327 328 325 323 322
301 302 301 304 308 309 312 314 314 313 315 315 315 318 316 316 316 319 319 318 319 321 325 323 322 321 321 321 321 321 322 324 325 327 327 327 328 328 329 329 331 331 331 330 330 329 330 333 334 335 335 336 334 334 336 336 335 334 334 333 332 331 331 331 331 330 327 327 327 329 331 333 334 334 333 333 332 331 333 333 332 329 326 325 323 322 321
298 295 305 309 310 310 310 311 315 317 316 316 315 316 315 318 319 319 319 321 321 323 323 323 321 320 321 321 320 321 322 324 326 326 326 327 327 327 327 329 329 329 329 328 328 328 328 330 332 333 333 334 334 335 335 335 334 334 333 331 330 329 328 328 327 326 323 322 321 322 324 326 326 327 329 330 330 330 328 327 327 327 327 326 323 322 321
295 297 300 302 306 309 311 311 312 314 316 317 318 316 316 320 321 322 321 322 322 323 322 322 321 320 320 320 319 320 322 325 326 327 327 327 327 328 329 329 328 327 327 326 326 326 327 328 330 331 331 331 332 333 334 334 334 333 331 330 328 327 326 326 325 324 324 325 319 315 314 314 317 321 324 323 322 323 325 327 326 326 326 325 323 322 321
301 303 306 307 310 311 312 311 312 311 313 315 318 319 320 322 322 321 322 324 324 323 322 321 321 320 319 320 321 321 323 325 326 327 326 325 325 327 327 327 328 326 326 326 326 326 326 328 329 329 328 329 330 330 332 333 333 332 331 331 328 326 325 324 324 324 321 320 318 316 313 311 308 306 309 317 321 319 318 319 326 326 324 324 324 323 323
298 301 301 307 303 300 304 308 312 314 314 316 318 318 320 321 321 321 322 321 323 324 323 322 322 321 319 319 320 322 322 324 325 325 324 324 324 325 326 326 326 326 327 326 326 326 326 328 328 328 328 328 329 330 330 331 331 330 329 328 326 325 325 324 323 323 322 321 321 320 319 317 315 312 307 300 305 316 316 314 309 309 315 324 324 322 315
295 302 305 312 306 302 305 308 310 315 316 318 319 319 319 319 322 322 322 321 321 322 323 324 323 321 320 319 321 322 323 323 323 323 323 322 322 322 324 324 324 324 324 326 326 326 325 327 327 327 327 327 328 329 329 330 330 329 329 327 326 325 325 324 323 322 321 320 321 321 321 320 320 319 316 311 298 298 305 306 302 298 299 302 309 315 321
305 305 308 311 308 308 312 310 312 316 318 320 319 318 319 320 321 322 323 324 323 321 322 323 324 322 321 321 322 321 321 322 322 322 323 322 322 322 322 322 323 323 323 323 323 324 325 326 327 327 327 327 328 328 328 328 328 327 327 326 324 324 324 324 324 322 321 321 321 320 320 320 320 319 317 316 314 301 296 298 298 295 295 296 297 300 305
309 307 309 313 310 309 312 311 315 316 318 320 319 319 319 320 321 323 323 322 324 323 322 322 322 323 322 321 322 321 319 321 324 326 326 325 323 321 322 322 322 321 319 319 320 321 322 324 325 326 325 326 327 327 328 328 327 327 326 326 325 325 326 326 325 324 322 322 321 321 320 320 320 320 318 317 314 312 308 298 295 294 293 293 293 293 294
310 311 312 313 313 313 313 317 317 316 317 319 319 319 324 325 322 323 322 322 322 323 323 323 322 322 323 321 320 318 320 322 325 323 320 321 321 321 321 322 323 323 323 322 322 323 323 324 324 324 324 324 325 327 328 328 328 327 326 326 326 325 325 325 324 323 322 322 321 320 320 320 320 319 319 317 315 314 313 313 312 305 299 295 294 295 292
313 315 316 314 313 313 314 314 313 318 318 319 320 320 322 323 328 323 321 322 324 324 324 323 323 322 322 321 320 320 321 321 320 319 320 321 322 321 322 323 323 323 323 323 324 327 326 323 322 321 320 322 324 326 326 327 328 328 328 329 330 332 330 327 324 324 323 323 322 323 325 324 323 321 320 322 322 319 316 314 311 309 309 310 300 293 299
315 316 313 308 308 312 314 316 312 319 319 319 319 320 320 319 318 317 318 319 319 319 320 321 321 321 320 319 321 320 320 319 319 320 321 321 321 321 321 320 319 319 319 319 318 321 320 318 318 317 317 317 324 326 327 327 327 326 327 327 328 328 328 328 326 325 324 324 324 324 322 322 325 326 327 326 323 322 320 318 314 312 312 308 308 301 293
315 316 314 312 311 313 316 317 317 319 318 317 319 320 319 318 315 316 316 318 317 317 317 318 321 322 320 318 320 318 318 319 320 320 320 320 322 320 319 318 318 318 316 316 314 314 315 315 315 315 315 316 321 326 326 325 324 325 326 326 326 325 325 324 324 325 324 324 325 328 331 331 329 328 330 329 326 321 320 319 317 314 309 309 310 313 312
314 313 313 314 316 319 320 318 319 318 318 318 319 319 319 317 314 314 314 314 315 317 316 317 318 318 319 319 319 319 319 320 320 320 321 321 320 319 318 318 317 316 315 313 312 313 312 312 312 312 312 313 319 321 321 320 320 321 321 321 323 324 324 323 323 323 324 325 329 332 333 330 329 330 330 329 329 327 325 323 319 315 312 316 316 311 311
313 313 314 315 317 318 319 318 318 318 318 317 318 318 316 316 314 313 312 313 315 315 315 317 318 318 319 319 319 320 320 321 321 321 320 320 319 319 319 319 318 316 314 313 312 312 311 311 311 311 312 313 314 317 318 318 318 320 321 322 325 327 326 326 324 323 325 328 328 327 328 327 327 330 330 329 328 325 323 322 319 318 317 315 315 314 312
316 315 315 314 316 316 315 314 317 317 316 316 317 317 315 314 313 312 312 313 314 315 315 317 318 318 319 319 320 321 320 320 320 320 320 319 319 319 319 319 319 319 314 314 314 313 311 312 312 313 314 314 315 315 315 315 316 317 319 328 325 327 328 327 329 331 334 333 329 328 329 325 326 330 334 332 329 325 323 322 320 320 316 317 317 316 315
314 313 312 312 313 313 314 314 317 317 316 315 317 318 316 316 315 314 314 314 314 315 316 318 318 319 320 320 320 320 320 320 320 320 319 319 318 317 316 316 316 315 314 314 313 312 312 312 313 315 316 316 315 315 315 315 315 316 317 322 328 332 332 327 327 329 329 328 325 325 325 327 328 329 330 329 327 326 324 324 322 323 323 320 319 318 316
315 315 315 318 318 317 316 316 317 319 317 316 316 315 315 315 315 314 314 315 315 316 317 318 319 320 321 320 320 320 320 320 319 318 318 317 316 315 315 315 314 313 313 313 312 312 312 313 314 315 316 317 316 315 314 314 315 316 318 321 324 325 327 329 329 328 327 327 325 327 325 327 324 326 329 329 327 324 326 324 325 326 324 323 322 321 312
318 317 318 320 321 320 321 320 318 319 319 317 314 314 314 314 314 314 315 315 315 317 318 320 321 321 321 320 320 320 321 320 320 319 317 316 314 313 312 313 313 313 312 312 312 311 312 312 313 315 316 316 317 316 314 313 315 317 319 322 325 325 327 327 326 325 323 322 322 320 320 321 322 326 326 324 325 326 327 326 326 325 324 322 322 320 314
318 316 316 317 319 319 320 320 321 321 320 319 317 315 314 314 315 315 317 316 317 319 320 321 321 321 320 320 320 320 320 320 319 318 317 315 313 312 313 313 313 312 311 312 313 313 313 316 325 323 318 319 317 317 319 314 314 316 319 320 323 324 325 323 322 320 321 319 320 321 321 323 322 321 321 319 320 321 321 320 320 321 320 320 319 316 314
319 318 317 318 319 320 320 320 320 321 320 319 317 316 315 316 316 317 318 318 319 320 321 321 321 320 320 321 321 321 320 320 319 318 317 314 312 311 312 313 313 312 313 313 315 315 318 321 321 319 312 312 314 316 324 320 313 313 315 315 316 317 316 315 316 315 315 318 317 317 318 316 315 316 319 316 316 317 317 317 319 317 318 319 318 316 314
319 319 318 318 319 320 320 320 321 321 320 318 318 318 317 317 317 318 318 319 320 321 322 322 321 321 321 320 320 319 319 319 319 317 315 313 312 311 311 312 312 313 313 313 314 314 317 319 319 312 308 309 310 314 321 321 318 312 313 314 316 316 316 314 314 314 314 314 315 313 313 312 312 312 313 313 314 316 316 316 316 315 315 316 316 315 315
318 318 318 319 319 320 319 320 321 321 321 319 318 317 318 319 319 319 319 319 321 322 322 321 321 320 319 319 318 317 318 318 318 316 314 313 313 312 311 312 313 314 313 314 313 316 317 314 314 309 310 309 310 313 319 319 316 311 312 313 315 316 315 315 314 314 314 313 312 312 312 312 312 311 311 312 314 316 318 316 315 315 314 315 316 316 315
317 318 319 319 319 319 319 320 320 321 321 321 319 318 319 319 319 319 319 319 321 323 322 321 320 319 318 319 318 317 317 317 317 316 314 313 313 311 310 310 311 310 313 321 316 315 319 318 310 307 309 309 311 313 319 317 315 313 311 311 312 313 313 313 312 312 313 313 314 314 312 312 312 312 312 312 312 312 311 311 312 313 313 313 314 315 316
318 318 318 319 319 320 320 320 320 320 321 320 320 320 321 320 320 319 319 320 321 322 322 321 320 320 319 319 319 318 317 317 317 316 314 313 312 312 311 310 311 311 319 316 314 320 317 311 309 308 310 311 314 318 314 315 310 309 311 311 312 312 312 312 312 311 311 312 312 310 311 311 311 310 310 310 310 310 310 311 311 311 312 313 314 315 315
317 318 318 319 319 319 320 320 320 319 319 320 320 321 321 322 321 320 320 321 321 321 321 321 324 321 320 320 319 317 316 316 315 314 315 315 313 312 311 311 311 313 320 321 322 318 314 312 312 313 309 313 317 318 315 312 308 310 311 312 313 314 313 312 311 310 310 310 309 309 310 310 310 310 310 311 310 310 310 310 311 311 311 312 312 313 314
315 317 317 318 319 319 319 319 320 320 320 320 320 321 322 322 321 321 321 321 321 321 320 320 323 323 320 318 317 315 314 314 314 313 312 311 312 314 315 313 310 314 323 319 313 308 308 309 310 312 318 316 317 318 314 309 309 310 311 312 313 311 311 310 309 309 308 307 307 307 308 308 309 309 309 309 309 309 309 310 310 310 310 310 311 311 311
316 317 317 318 318 319 319 319 320 320 319 319 320 321 322 322 322 321 321 321 321 321 320 319 321 319 318 317 316 314 313 312 312 312 311 309 311 310 310 312 311 318 324 315 310 308 309 311 312 318 320 320 318 315 309 308 308 309 309 310 310 310 311 310 310 309 310 309 308 308 309 309 308 308 309 309 309 309 309 309 309 309 309 309 310 310 310
316 316 317 317 318 318 318 318 319 320 320 320 320 320 321 321 321 321 321 321 321 321 320 320 320 318 317 316 316 316 315 314 313 312 311 309 309 310 311 316 317 322 318 315 310 309 309 312 318 321 321 318 316 312 306 306 307 308 308 309 309 309 309 309 309 310 309 309 309 309 309 308 308 308 308 309 309 309 309 309 309 309 309 309 309 308 308
316 316 317 319 317 318 319 320 319 319 319 319 319 320 321 321 321 321 322 322 321 321 321 321 320 319 318 317 317 315 314 313 312 313 315 314 314 313 313 319 319 318 318 315 309 308 311 321 322 320 318 317 313 308 307 309 308 307 307 308 309 310 309 309 309 309 309 309 308 308 308 308 308 308 308 309 309 309 309 309 308 308 308 308 308 308 308
315 314 316 317 317 317 317 317 319 319 318 318 318 317 319 320 321 322 322 322 322 322 321 321 321 320 319 318 315 313 312 310 311 311 311 313 315 314 318 320 320 320 316 310 309 310 314 319 320 319 317 315 309 304 304 305 305 306 307 307 308 308 308 308 308 308 308 308 309 309 309 308 308 309 310 310 309 309 309 308 308 308 308 308 308 307 307
314 315 314 314 315 315 317 318 318 317 318 318 319 319 319 320 320 320 319 319 320 321 321 320 320 319 318 317 317 317 316 314 311 310 310 311 313 316 318 317 318 320 314 314 314 317 321 321 320 317 315 312 306 304 305 305 305 305 305 306 305 305 305 306 306 308 308 309 308 306 306 306 307 307 308 308 308 308 308 308 308 307 307 306 306 306 306
312 312 313 313 314 315 316 317 317 317 318 319 319 318 319 319 319 318 318 319 319 319 319 318 318 317 317 317 317 317 317 318 317 314 311 313 314 315 316 319 321 318 313 311 313 316 320 320 318 315 313 308 304 304 304 304 305 306 305 305 306 305 305 304 304 305 306 306 306 307 307 306 306 307 307 307 307 308 308 307 307 307 307 306 306 306 305
311 312 312 312 313 314 315 315 316 317 318 317 317 316 317 317 314 315 318 318 318 318 317 317 316 316 315 315 317 316 316 316 315 314 313 314 314 314 316 316 315 315 313 311 313 316 320 319 316 313 308 304 304 304 305 305 306 307 307 307 307 306 307 307 308 307 306 307 307 307 307 306 306 307 308 307 307 307 307 307 308 308 307 306 306 306 306
312 312 312 313 313 314 314 314 315 315 314 314 314 316 317 317 316 315 314 316 317 316 314 313 313 313 313 314 314 315 314 313 314 315 313 313 314 315 316 314 313 314 314 313 313 314 313 310 309 309 306 305 305 305 306 307 308 308 308 306 307 308 307 307 307 306 306 307 307 307 307 307 307 307 307 308 308 307 308 308 307 307 306 306 306 305 305
310 310 310 311 311 312 312 312 312 313 314 315 316 317 317 317 316 315 315 318 316 315 314 312 311 311 312 313 313 312 313 314 314 313 315 314 314 313 314 314 311 313 312 311 310 309 307 308 311 309 308 305 305 307 311 311 307 307 308 311 310 308 309 308 308 308 309 309 307 308 308 307 307 308 307 308 308 308 308 307 307 307 307 306 306 305 305
Wind_Speed
4 3 2 1 1 1 2 3 2 1 2 3 2 3 4 4 2 7 2 2 2 4 4 2 3 3 4 3 6 6 7 8 7 7 8 9 8 8 8 7 6 5 6 4 4 6 8 8 8 8 7 7 8 9 9 8 7 7 7 8 9 10 9 9 10 9 8 7 7 7 7 7 7 7 7 7 6 5 5 6 5 6 6 6 7 7 7
2 1 3 3 4 1 1 1 3 4 4 5 6 5 4 7 5 6 5 3 8 7 5 6 4 1 4 4 4 5 7 8 7 7 8 9 9 9 9 9 8 7 6 4 1 2 5 7 9 9 8 7 8 9 9 9 8 7 7 6 6 6 7 6 5 6 7 7 7 7 7 8 8 8 8 7 7 7 7 7 6 6 6 6 7 8 8
2 3 2 2 3 4 1 3 2 2 1 2 3 2 1 2 4 4 1 1 7 4 3 3 1 1 3 5 7 8 6 6 7 8 8 7 8 9 7 7 8 8 7 6 3 1 3 5 7 8 9 7 7 8 9 10 10 9 9 8 8 7 6 6 4 3 3 4 5 7 8 7 6 7 8 7 7 7 7 7 7 6 6 7 8 7 8
2 2 2 2 3 2 1 4 6 5 3 4 3 3 4 4 5 1 0 3 6 4 1 1 1 3 5 6 6 5 5 7 7 8 8 8 8 9 9 8 8 8 7 7 5 4 4 5 8 8 8 8 7 8 8 10 10 10 10 10 10 9 7 7 7 7 5 2 5 6 6 8 7 7 7 7 7 7 7 7 7 6 7 8 7 7 6
3 3 1 3 2 2 5 6 7 5 3 1 0 1 2 4 4 2 2 6 3 3 3 2 4 5 6 7 4 5 6 7 7 7 8 8 8 7 7 8 9 7 6 6 5 4 4 4 6 8 9 9 9 8 8 7 7 9 8 7 7 7 5 1 5 7 8 8 7 6 7 7 6 6 7 7 8 7 8 7 5 6 7 6 7 6 7
2 2 0 2 1 1 4 2 1 2 1 3 3 3 6 5 6 4 4 4 2 4 5 6 5 7 6 4 3 3 4 5 6 7 6 7 8 7 7 7 7 8 6 5 4 3 4 5 6 7 7 8 8 7 6 6 8 7 8 8 10 10 10 9 7 6 7 8 9 9 7 7 6 6 7 8 8 7 7 7 7 7 7 7 6 7 7
1 0 2 2 1 8 5 3 3 3 3 3 4 4 2 2 2 0 0 3 5 7 7 7 5 3 3 2 3 4 3 3 5 6 6 6 8 9 8 9 8 8 7 6 4 3 3 3 2 4 6 6 4 6 7 7 8 9 9 9 10 11 12 11 9 9 8 8 8 7 6 6 6 7 8 7 7 7 7 7 6 6 6 5 5 5 6
2 2 2 2 5 5 4 6 2 1 3 2 1 5 5 6 7 7 4 6 5 5 4 4 4 1 2 2 1 2 4 2 3 5 6 7 7 8 7 8 8 9 9 7 5 5 3 1 1 1 3 5 7 7 8 8 8 9 9 10 9 8 9 10 10 10 10 9 6 6 9 9 9 8 8 8 8 6 5 4 4 4 3 4 3 2 1
3 3 4 6 3 4 1 2 1 3 2 2 2 2 6 6 7 8 5 4 4 3 1 2 2 3 2 2 2 3 5 4 3 3 5 5 5 5 6 6 8 8 9 8 5 4 2 1 2 6 4 6 7 8 8 8 9 8 8 8 7 8 8 8 9 9 9 9 8 9 10 9 9 9 8 7 5 4 6 6 6 5 4 3 3 4 4
4 5 0 2 1 2 6 7 3 1 2 3 3 3 7 4 4 6 9 8 6 5 4 4 1 3 2 3 3 4 2 3 4 4 4 4 5 6 6 5 7 8 8 8 5 3 4 1 3 1 7 6 7 6 6 6 7 6 6 6 6 7 8 8 7 7 8 9 9 9 9 10 11 11 9 7 8 6 6 5 4 5 4 4 5 4 2
2 2 2 3 3 6 6 4 4 2 3 4 4 3 5 5 4 5 7 7 7 8 8 6 2 3 1 4 6 4 1 3 3 4 4 4 4 6 5 5 7 8 7 8 2 1 2 2 4 4 4 7 7 6 6 7 8 8 7 6 6 7 6 5 5 6 7 7 8 9 9 9 8 8 8 9 8 7 6 6 6 4 4 5 3 2 2
1 4 2 3 4 1 1 6 3 2 2 4 3 2 4 2 3 5 5 8 9 7 6 6 4 6 5 4 3 1 3 2 3 4 4 5 6 7 7 5 5 6 6 8 2 1 3 3 3 4 4 3 4 6 5 5 4 6 7 8 7 5 4 5 6 7 7 8 8 9 10 9 8 9 7 6 7 7 8 8 7 7 6 6 6 5 1
2 4 1 2 4 4 3 3 5 2 2 3 2 4 3 1 4 4 5 7 8 8 8 8 7 6 3 3 4 2 4 4 5 5 5 3 4 6 7 7 7 6 5 4 4 3 3 4 4 4 5 4 3 4 5 5 5 4 4 4 5 6 6 6 6 6 6 6 8 8 10 10 9 8 6 6 7 8 9 7 7 5 5 5 3 3 2
3 3 2 5 4 6 4 1 2 0 3 1 3 5 1 2 3 3 4 5 5 8 9 8 4 3 2 2 1 4 4 4 3 5 5 5 5 5 6 8 7 6 6 6 5 3 3 3 4 4 4 5 4 5 5 5 4 4 5 5 5 5 6 6 6 6 6 6 6 9 8 5 5 5 4 6 7 7 7 7 7 6 6 6 5 4 4
2 3 2 2 1 1 3 5 2 1 1 4 2 2 2 1 4 6 2 4 5 6 5 3 4 4 4 3 4 3 3 5 5 4 4 5 6 7 8 8 8 6 6 6 7 4 2 4 4 4 4 6 6 6 7 7 5 4 3 4 5 5 5 4 4 3 2 4 4 2 1 3 4 5 5 7 7 6 7 5 5 5 5 6 6 5 5
3 2 2 1 4 1 2 3 3 2 3 1 5 4 1 0 2 3 4 1 4 5 7 7 7 6 5 5 3 3 4 3 2 2 4 4 5 6 7 7 7 7 7 7 5 6 5 5 5 6 5 6 6 7 7 4 5 6 6 6 5 4 4 4 4 2 2 2 4 2 3 4 5 7 8 8 8 7 6 4 3 4 5 5 6 6 5
3 3 5 2 2 3 1 2 1 2 2 3 5 3 3 4 2 2 4 4 3 4 7 7 8 6 3 4 3 4 1 2 3 3 4 4 5 6 7 8 8 8 8 9 8 8 6 7 6 6 5 6 6 6 4 4 6 7 7 7 7 8 8 8 8 8 8 8 8 7 5 4 3 4 7 7 6 5 6 5 3 4 4 4 5 5 5
2 2 5 1 2 1 1 2 3 4 3 2 3 4 3 2 4 5 5 5 5 5 7 8 4 5 6 6 5 3 2 3 3 3 4 5 6 5 6 6 7 7 7 7 6 8 8 8 7 7 6 5 6 4 3 4 6 7 8 9 9 9 8 8 7 7 9 9 9 9 7 6 5 4 6 6 5 5 6 6 6 6 6 5 5 5 5
2 1 0 2 2 1 1 1 1 1 1 1 2 2 2 3 4 3 3 7 7 7 6 7 7 7 7 7 5 4 3 4 4 4 4 4 5 5 6 6 7 7 7 7 7 8 8 7 7 7 7 6 5 5 6 6 7 8 9 8 8 8 8 7 6 7 8 8 9 8 8 7 7 7 6 6 6 6 6 7 7 6 7 6 6 6 6
3 1 2 4 4 5 4 4 1 1 1 1 0 1 2 5 3 4 6 6 6 6 6 6 8 7 6 8 6 4 4 4 3 4 4 4 5 6 6 7 7 8 9 9 9 9 8 8 7 8 8 7 7 7 7 7 6 7 8 7 8 8 8 7 6 6 8 13 11 8 7 6 6 7 8 8 7 6 5 7 8 7 7 7 7 7 6
4 3 4 5 4 4 4 3 4 3 4 3 2 2 4 5 7 5 4 4 8 7 7 5 7 7 4 6 6 6 4 4 4 4 4 4 5 5 7 7 7 7 7 9 8 8 7 6 6 7 8 6 6 8 7 7 6 6 7 9 8 8 7 7 8 8 7 7 7 7 8 10 9 8 6 5 6 7 6 4 4 7 7 7 7 6 7
1 4 5 5 2 2 3 5 8 6 5 5 4 3 4 5 7 7 7 3 2 4 6 7 7 7 5 5 5 6 4 4 5 5 4 4 4 5 5 5 6 7 7 6 6 7 6 4 5 6 7 7 8 8 7 6 6 9 7 7 6 6 6 6 6 6 6 6 6 7 7 8 9 9 14 13 10 7 6 10 12 10 7 6 6 6 6
3 7 7 8 5 3 3 1 1 6 7 7 7 6 6 5 6 8 9 7 4 5 3 3 7 7 7 6 5 6 5 4 4 4 5 5 4 4 4 6 7 7 7 6 7 7 6 6 7 7 7 7 7 8 7 6 6 6 6 7 7 6 6 6 6 6 6 6 5 6 6 7 7 7 8 10 14 14 11 10 11 14 15 14 12 7 6
3 4 6 8 4 3 1 2 4 5 6 8 6 5 5 7 8 8 8 10 10 7 5 3 3 7 7 6 6 7 5 4 6 5 5 5 5 4 5 6 6 7 7 7 7 7 6 7 7 7 8 8 7 7 6 7 6 7 7 7 7 6 5 5 6 6 5 6 5 6 6 5 4 4 6 8 7 12 14 13 14 15 14 13 12 12 10
1 1 5 7 5 2 0 2 3 5 4 6 7 7 7 6 5 6 7 5 5 10 8 6 5 5 7 5 6 7 5 5 5 5 6 5 5 5 5 7 7 7 5 5 5 6 6 7 8 8 7 7 6 6 6 6 7 7 7 7 7 6 5 6 6 6 5 5 5 4 5 5 4 4 5 5 7 6 8 11 14 15 14 13 12 11 11
1 3 4 5 3 3 3 4 2 3 4 3 3 3 4 5 7 6 6 6 6 5 7 7 7 5 7 7 6 7 7 6 5 4 6 6 5 6 6 7 6 5 5 6 6 6 7 7 7 7 7 6 6 6 6 7 7 7 7 6 6 5 5 5 5 5 5 4 4 4 4 4 4 4 4 4 4 5 6 5 7 10 13 14 12 12 13
2 6 9 6 2 1 3 5 5 7 6 4 5 6 5 4 6 4 3 3 4 6 6 7 7 6 5 5 6 6 9 6 6 6 6 6 6 5 5 5 6 6 7 6 6 6 7 6 7 7 7 6 4 4 6 6 7 6 6 6 5 7 10 6 4 4 4 4 4 4 4 4 4 5 4 4 4 4 4 5 5 5 4 5 9 11 7
6 6 1 4 4 8 7 7 3 5 6 6 6 7 4 5 6 5 5 4 4 4 5 6 8 8 7 5 7 6 6 7 7 5 6 6 5 5 5 6 7 7 7 7 6 5 6 7 7 7 7 6 5 4 5 6 6 6 5 5 5 5 5 5 4 4 4 4 3 4 4 4 4 4 4 4 5 5 5 5 5 5 5 4 3 4 9
6 5 0 0 1 3 4 5 4 5 4 3 4 6 7 7 5 6 6 6 6 6 6 4 3 6 8 6 7 7 6 6 7 6 6 5 5 6 6 7 7 7 7 7 6 6 7 7 7 7 6 6 5 4 5 6 5 5 4 4 5 4 4 3 3 3 3 3 3 3 4 4 4 4 5 5 5 5 5 4 4 4 4 3 3 4 4
3 2 1 2 4 8 9 6 7 5 6 6 8 6 6 8 7 5 6 6 6 7 6 6 7 6 6 7 6 8 8 7 7 6 6 5 5 5 6 7 7 7 7 7 6 5 7 7 7 7 5 6 4 4 6 6 5 5 5 4 4 4 4 3 4 3 3 3 2 3 3 3 3 4 5 5 4 4 4 4 4 4 5 4 3 4 5
4 3 3 3 4 4 6 7 5 5 6 5 6 8 5 6 7 7 6 5 4 6 6 7 7 7 6 7 6 6 7 7 6 6 6 5 5 3 2 4 7 5 6 5 4 5 7 6 6 5 3 3 3 4 5 6 5 5 4 4 4 4 5 4 3 4 4 4 3 3 3 3 3 3 3 3 4 3 4 3 4 3 3 3 3 4 3
8 5 5 2 3 5 4 4 5 5 6 5 7 9 9 10 9 9 7 7 7 8 7 7 8 8 7 6 7 7 7 7 7 6 6 5 5 4 3 4 9 7 6 4 4 4 6 7 7 3 2 2 3 4 5 5 5 5 4 3 4 4 3 4 3 3 3 3 3 4 3 3 3 2 3 3 3 3 2 3 3 2 2 3 3 3 2
8 5 2 2 3 2 4 4 7 7 6 8 9 8 7 7 7 8 9 8 7 6 8 8 6 7 7 7 8 8 7 7 7 6 6 6 5 5 5 5 7 7 6 4 4 4 5 7 4 2 3 4 5 4 4 4 5 5 4 4 5 4 4 4 5 5 5 4 4 4 4 4 3 3 3 3 3 3 2 2 2 1 1 1 1 1 2
13 11 12 13 13 10 10 10 7 7 6 5 4 6 6 6 7 7 7 7 8 9 8 8 8 8 8 8 8 8 9 8 7 6 6 6 6 5 5 6 7 7 6 4 5 5 5 4 4 4 4 5 5 4 4 4 4 4 4 5 5 5 5 5 5 5 5 4 4 4 4 5 4 3 3 3 3 3 2 2 1 1 1 0 1 1 2
10 10 10 13 12 10 10 11 11 9 8 8 5 5 6 6 7 8 8 10 11 10 7 8 8 8 8 8 9 9 9 9 8 8 7 7 7 7 7 8 7 7 6 5 5 5 4 3 4 4 5 5 5 5 4 4 3 4 4 5 5 5 4 4 5 5 4 4 4 4 4 5 4 4 3 3 3 2 2 2 2 1 1 1 1 2 3
6 5 3 4 5 4 6 8 10 11 10 10 9 8 8 7 8 8 10 9 6 8 8 9 9 9 9 9 9 9 8 8 8 8 8 7 7 6 7 8 8 8 7 5 3 2 1 1 5 7 5 5 5 5 4 3 3 4 4 5 5 5 4 4 5 5 4 5 5 5 5 5 4 4 4 4 4 4 3 3 3 3 2 2 1 2 2
7 8 7 6 6 7 7 8 9 9 9 8 8 7 7 7 9 8 6 7 8 9 9 9 9 10 10 10 10 8 7 8 8 8 8 7 7 7 7 7 7 8 7 6 1 0 2 4 8 9 6 5 5 5 3 5 4 4 4 5 5 6 6 6 5 5 5 4 4 4 4 5 5 4 4 4 4 3 3 3 3 3 2 1 1 2 3
11 10 8 7 8 8 8 8 8 8 7 5 4 5 9 8 7 8 8 8 9 10 10 11 12 10 8 6 6 8 7 6 7 8 8 8 8 8 7 8 7 6 6 6 5 4 4 5 9 6 5 4 4 4 4 7 6 5 5 5 5 5 5 5 5 5 5 4 4 4 4 4 4 4 4 4 3 3 3 3 3 2 2 2 1 1 1
4 3 3 3 4 4 5 6 7 7 10 11 8 6 6 8 8 8 8 8 8 9 10 8 7 8 8 9 7 6 7 7 8 8 9 8 7 8 8 6 7 6 5 6 6 5 4 5 5 5 5 4 4 5 5 8 7 5 5 5 6 5 5 5 5 4 4 4 4 4 4 4 4 4 4 3 3 3 3 4 3 3 2 2 2 2 2
6 7 8 7 7 7 7 8 9 9 8 8 10 9 8 8 8 9 8 8 7 9 10 9 10 9 8 9 9 8 8 8 8 9 9 8 6 6 5 3 2 2 4 7 6 5 6 9 6 5 4 3 4 4 4 6 5 5 6 6 6 5 5 5 6 6 5 4 5 5 4 4 4 3 3 3 3 3 3 3 3 3 3 3 3 3 3
9 8 6 7 7 8 8 9 9 8 8 8 7 8 9 10 9 9 10 10 9 8 9 10 11 9 10 10 10 9 8 8 8 8 8 8 7 7 7 6 3 3 6 6 6 5 6 5 5 5 3 3 3 4 5 6 5 5 5 6 6 6 6 5 5 5 5 4 4 4 4 4 4 4 3 3 3 3 3 3 3 3 3 3 4 5 5
6 5 6 6 6 7 8 6 6 6 6 7 7 8 9 10 12 12 11 9 9 9 9 8 10 12 10 8 7 8 7 7 7 7 9 10 10 7 6 5 5 5 8 8 6 6 5 4 4 4 4 4 4 6 6 5 5 5 5 5 5 6 5 5 5 5 4 4 4 4 3 3 4 3 3 3 3 3 3 3 3 3 3 3 4 3 4
4 7 8 8 7 7 7 8 9 10 9 8 8 9 10 10 8 7 8 9 10 9 8 7 6 6 8 8 9 9 7 7 7 7 4 2 2 2 6 8 7 6 12 7 6 5 5 5 5 4 4 4 5 8 8 5 5 5 5 5 5 5 5 5 5 4 4 5 4 3 3 3 3 3 3 3 2 2 3 3 3 3 3 3 3 3 4
6 6 6 6 7 7 7 8 6 5 7 8 8 8 9 8 8 10 10 10 9 9 10 9 8 8 8 9 9 8 7 7 7 6 6 4 2 2 2 6 6 9 13 7 6 6 5 5 5 6 8 8 9 8 5 5 5 5 5 6 6 5 6 5 4 4 4 4 4 4 3 3 3 2 3 3 3 3 3 3 3 3 3 3 3 3 3
6 7 7 7 5 5 6 6 9 11 8 7 8 8 8 8 7 8 10 11 11 11 10 10 10 10 9 10 10 10 10 10 10 10 8 5 5 5 2 6 7 6 8 8 5 5 5 5 6 9 9 10 10 9 5 5 5 4 5 5 5 5 5 5 4 4 4 4 4 3 3 3 3 3 3 3 3 3 3 3 3 3 3 3 3 3 3
5 5 5 6 7 9 9 6 3 6 8 8 7 7 8 10 11 10 10 11 11 11 12 12 11 12 12 11 7 6 6 5 5 3 3 7 8 6 7 8 7 6 11 11 6 5 5 6 8 10 10 11 10 7 5 5 5 5 5 5 5 5 5 4 4 4 4 4 3 3 3 3 3 3 2 2 2 3 3 4 3 3 3 3 3 3 3
3 3 5 6 6 4 5 6 6 8 8 8 9 9 9 10 10 8 4 3 6 10 9 9 10 10 11 12 11 10 8 6 4 0 3 4 5 7 9 10 10 13 10 7 6 6 5 6 8 11 11 11 9 6 6 6 5 5 5 5 5 5 4 4 5 5 4 4 4 4 4 4 3 3 3 3 3 3 3 3 3 3 3 4 4 4 4
4 4 3 3 4 6 7 7 8 9 10 11 11 10 10 9 8 9 11 9 5 5 7 8 8 8 9 9 9 11 12 12 10 6 3 5 5 7 8 7 7 10 10 8 8 6 11 11 12 13 13 11 7 6 6 6 6 5 5 5 5 5 5 5 5 5 5 4 5 5 5 4 4 4 3 3 3 3 2 3 3 3 3 3 3 3 3
3 4 4 5 6 6 6 7 7 7 8 7 6 6 6 7 6 5 2 3 8 8 7 8 9 9 8 9 9 7 7 9 11 10 7 6 8 8 8 8 14 14 9 7 7 6 10 13 13 13 13 9 6 6 5 5 5 5 5 5 4 4 4 4 4 4 5 5 4 4 4 4 4 4 4 3 3 3 3 3 3 3 3 3 3 3 3
4 5 5 5 6 6 7 6 6 7 4 3 3 4 6 7 8 10 12 10 8 7 7 6 6 7 8 8 7 6 7 6 5 8 9 8 9 9 9 8 8 11 11 8 7 7 9 14 13 12 8 6 6 6 5 5 5 5 5 5 4 4 4 5 4 5 5 5 5 4 4 4 4 4 4 3 3 3 3 3 3 4 6 4 3 3 3
2 2 1 1 1 1 2 2 2 2 4 4 5 6 7 7 6 3 4 5 1 5 5 4 4 5 6 7 6 7 7 6 7 10 9 8 8 9 9 8 9 8 8 8 7 7 6 6 6 7 6 6 6 5 5 5 5 5 5 5 5 5 5 4 5 5 4 4 5 4 4 4 4 4 3 3 3 3 3 3 3 3 3 3 3 3 2
3 3 3 3 4 4 4 3 4 4 5 6 6 7 7 7 7 6 7 11 8 7 7 9 7 5 6 7 8 7 6 8 8 8 9 9 8 8 9 10 8 8 8 7 7 7 6 6 6 7 7 6 5 5 5 7 6 5 5 4 4 4 4 4 5 5 4 4 5 4 4 4 4 4 4 3 3 3 3 3 3 2 2 2 2 2 2
Wind_Direction
226 206 202 161 124 148 181 186 182 229 178 140 162 234 215 141 202 214 252 194 231 261 225 222 219 253 271 277 278 269 284 294 295 300 306 308 316 324 320 308 300 273 261 262 240 201 196 194 195 190 186 177 165 166 172 176 176 187 182 184 184 187 190 197 201 198 193 193 195 197 198 194 200 207 206 206 204 201 201 207 207 209 206 202 208 211 217
315 306 186 223 160 138 105 217 211 227 179 211 198 223 191 180 219 217 256 245 250 247 218 205 216 216 280 269 274 280 279 283 301 318 321 317 320 320 315 313 312 312 296 282 264 210 198 196 193 190 191 182 172 164 157 156 158 149 146 169 181 190 198 207 216 206 196 193 190 191 195 201 205 206 207 208 206 206 211 213 216 213 214 214 212 218 223
297 326 33 90 141 127 265 280 263 267 259 308 254 264 230 171 295 277 232 297 286 271 206 192 239 260 286 293 276 266 284 315 317 320 319 320 322 324 323 325 318 314 312 310 298 239 205 205 203 201 197 186 177 168 159 155 155 153 146 147 150 152 140 104 85 22 296 234 203 197 198 201 204 207 211 210 210 212 214 215 215 212 210 217 220 222 222
302 344 42 63 109 99 164 288 291 263 230 269 211 190 217 166 219 197 348 308 275 281 44 98 322 279 257 259 271 306 320 324 327 321 329 333 333 327 327 327 323 317 314 309 304 288 253 217 209 205 200 188 178 178 168 165 161 154 150 153 155 157 150 149 166 167 164 198 238 224 206 207 202 204 207 210 215 213 213 218 219 211 213 219 221 222 225
266 270 227 125 78 36 354 292 252 223 200 187 206 254 239 219 152 139 197 237 220 233 188 179 245 250 262 267 297 326 332 333 327 335 339 333 322 313 317 320 320 315 310 308 303 294 283 258 237 222 198 186 193 182 182 172 154 161 152 135 110 82 64 125 184 175 176 184 193 212 217 211 204 199 204 211 216 217 219 216 207 211 221 218 222 222 222
236 286 306 96 58 10 246 232 241 163 218 189 205 246 205 211 165 202 186 202 219 185 181 204 220 226 245 280 314 239 264 309 325 324 331 329 324 323 324 322 318 309 294 286 283 274 269 244 226 224 218 210 193 168 156 145 152 146 142 146 145 155 171 170 179 181 180 183 186 195 196 193 192 199 204 213 215 216 218 211 209 214 215 219 224 225 224
213 6 39 63 214 238 239 280 260 204 226 195 217 257 251 243 273 28 216 197 207 211 210 215 226 242 284 331 293 310 302 287 308 325 330 332 329 328 331 334 331 320 307 288 281 286 300 269 230 206 210 202 135 141 153 152 158 153 160 160 168 171 176 178 176 181 188 199 200 169 148 163 184 198 202 208 211 211 209 215 217 220 220 229 244 251 255
75 58 69 121 241 238 278 286 271 243 110 104 56 311 275 220 206 191 211 228 213 211 205 212 220 259 333 342 297 343 337 345 335 343 336 336 329 328 331 330 330 325 317 308 302 297 314 344 97 32 117 137 140 150 158 158 160 160 166 178 186 170 175 179 180 183 188 197 171 155 178 186 188 196 202 206 211 200 179 172 162 160 154 157 170 161 160
178 205 159 217 292 327 313 340 235 161 166 151 141 232 278 222 191 175 185 185 195 188 184 135 90 1 30 27 321 334 5 355 6 7 356 353 339 319 325 337 329 324 317 316 283 285 266 31 228 143 157 144 142 144 148 154 151 158 167 182 181 180 184 183 184 185 187 182 170 186 202 195 192 192 191 195 190 161 173 183 179 172 164 136 130 124 99
125 136 13 338 13 266 276 237 277 264 168 148 165 117 286 287 223 173 150 170 175 163 132 128 55 22 58 311 280 272 320 356 5 2 10 10 352 331 323 335 328 320 320 314 287 331 313 13 336 228 151 138 130 129 121 119 129 136 147 161 174 184 193 191 183 181 184 179 178 190 199 200 195 195 189 176 174 165 168 157 99 64 55 45 27 24 60
95 64 135 202 170 242 213 239 237 242 207 173 136 65 298 275 190 185 152 161 174 165 162 154 92 87 202 249 253 262 299 14 21 26 15 1 343 306 316 329 324 314 316 310 304 268 209 61 72 6 94 117 120 123 125 128 134 137 142 156 181 195 192 171 169 180 185 182 185 191 202 210 205 195 189 190 178 149 126 109 116 136 131 120 90 41 299
185 133 124 244 202 225 242 229 262 227 187 137 82 332 285 256 184 169 149 164 175 180 163 149 158 156 178 258 262 300 65 66 33 39 7 357 338 321 320 326 307 303 314 326 328 89 51 61 92 116 116 143 129 124 129 132 122 141 161 170 173 174 164 170 178 186 188 192 195 196 204 210 208 206 192 179 155 132 127 135 150 177 172 150 171 224 8
170 157 238 321 300 269 255 229 241 269 184 102 100 207 234 247 155 175 165 174 180 164 159 167 187 213 172 202 244 319 46 35 9 12 357 330 315 313 321 324 322 316 317 328 310 75 52 18 50 90 95 96 112 120 121 132 137 161 162 153 154 157 153 165 181 190 188 191 193 202 206 208 205 203 180 153 134 137 136 139 146 152 118 103 100 95 51
155 181 161 228 241 240 194 245 161 191 111 96 198 237 221 159 153 199 176 169 175 169 173 183 192 228 231 216 8 60 43 67 33 11 337 343 345 325 333 335 341 328 333 351 341 66 56 44 43 57 103 121 115 108 106 93 112 153 155 152 150 147 157 169 184 189 189 186 199 207 208 185 186 187 142 137 140 137 136 141 149 154 140 135 124 96 68
73 46 65 18 10 310 136 123 49 38 162 227 210 182 330 183 168 148 201 170 178 161 161 163 160 132 111 106 96 73 44 44 21 341 352 8 350 352 349 350 350 356 5 19 357 359 17 48 50 55 70 74 76 80 78 79 84 91 103 121 133 139 150 161 183 197 195 198 198 229 127 113 137 121 123 121 120 124 126 136 146 132 110 110 117 105 81
144 116 135 194 211 220 235 132 180 229 204 203 187 138 107 297 146 144 126 224 175 166 150 160 148 143 134 100 96 79 56 46 354 338 9 359 360 359 355 356 0 10 34 24 13 22 29 46 42 43 59 71 71 74 68 71 74 72 70 73 82 93 147 164 173 168 157 80 56 64 77 86 115 128 130 137 144 148 139 142 140 124 109 120 121 115 98
134 191 212 243 232 206 243 159 204 225 248 196 189 149 145 145 212 199 141 181 163 161 142 145 144 140 129 134 139 104 114 69 31 30 4 3 4 5 1 2 11 30 38 25 16 28 38 64 63 51 45 69 70 63 42 53 72 75 78 82 80 67 57 58 67 71 71 67 57 41 42 73 80 109 113 120 123 136 137 123 123 111 92 99 98 104 105
250 256 203 243 278 222 277 216 206 206 221 240 169 138 121 220 189 182 165 172 140 140 142 137 135 132 140 122 108 109 107 82 63 48 31 18 13 5 11 15 20 35 60 47 21 36 28 31 37 46 44 40 67 58 47 69 79 77 75 69 64 60 55 54 52 62 69 64 60 53 48 49 56 43 92 97 110 117 119 126 130 117 122 114 110 107 106
105 229 297 200 230 274 243 246 243 188 116 200 183 142 158 168 164 155 160 148 147 148 159 151 145 143 139 124 129 125 100 83 72 59 44 27 21 18 24 21 30 37 40 50 37 33 26 19 31 43 49 43 48 53 50 42 59 69 71 70 71 65 64 63 57 60 64 68 68 52 44 46 54 50 48 67 80 84 94 110 115 123 123 122 120 114 125
135 214 249 249 261 251 249 219 209 176 118 53 141 204 166 151 155 150 155 136 131 145 149 159 143 145 142 127 131 120 111 101 92 74 57 34 27 33 45 40 46 52 53 50 40 35 26 12 28 43 46 38 32 41 41 38 43 69 75 71 71 69 68 69 60 56 65 68 70 63 48 46 45 54 63 70 71 77 87 112 123 124 130 132 136 141 138
276 296 283 282 295 299 274 237 227 190 167 158 104 109 129 134 131 133 148 164 158 160 159 149 136 128 135 131 135 128 136 124 98 79 71 55 44 39 45 44 49 56 57 60 57 48 38 29 37 51 51 42 41 59 63 62 48 49 68 75 73 73 75 73 74 72 74 80 85 88 84 72 64 53 35 38 70 73 49 30 83 131 133 126 133 132 132
273 198 225 148 127 277 290 258 212 191 179 144 139 124 129 145 141 153 149 142 133 136 155 159 148 140 137 140 131 126 126 120 110 98 81 75 71 54 54 59 57 58 52 61 63 67 57 44 52 61 60 54 44 44 45 45 69 89 83 76 66 64 66 72 74 78 77 72 71 76 78 79 77 68 57 55 42 61 64 46 61 60 89 119 127 122 102
226 244 219 195 160 171 217 209 218 166 153 148 151 173 170 179 171 161 151 144 128 149 171 169 146 138 141 154 133 117 120 115 101 98 106 103 89 69 64 66 49 49 43 45 57 60 57 61 62 59 56 54 57 53 52 55 58 68 80 84 74 63 66 70 73 82 81 80 76 77 75 81 82 87 89 61 55 50 52 59 65 68 70 73 79 91 116
243 221 199 183 158 162 148 225 184 169 162 155 171 180 178 169 173 177 170 165 158 166 163 153 136 140 136 145 130 119 105 111 100 91 90 95 90 88 68 78 67 58 50 44 48 47 49 59 65 66 66 58 56 58 58 62 61 69 74 79 80 73 67 67 74 73 68 80 80 85 77 68 69 82 89 95 69 46 50 56 60 63 61 61 63 64 65
244 216 176 181 152 152 281 176 170 164 168 159 159 176 174 169 183 181 167 168 176 156 158 152 126 135 136 139 128 126 123 103 95 95 92 86 82 81 83 71 60 65 62 64 62 57 54 56 56 56 58 45 42 53 59 62 71 74 73 78 87 81 79 83 82 85 79 72 71 70 80 81 74 73 84 80 86 84 54 64 73 71 63 61 62 60 60
119 99 103 95 81 102 137 96 74 168 183 168 131 152 175 172 172 171 173 161 165 172 155 146 135 142 139 138 126 119 101 97 99 96 93 91 83 74 71 79 86 84 75 65 64 67 65 62 63 58 55 36 40 46 50 54 55 63 64 66 69 73 76 82 78 70 66 68 71 66 65 77 80 75 66 68 83 92 93 81 61 57 56 51 50 63 59
141 153 115 73 49 299 241 161 191 198 185 182 156 161 165 167 169 154 130 142 164 170 156 144 139 140 121 119 116 116 118 111 86 82 94 94 92 98 102 93 81 80 73 68 61 67 70 61 55 51 39 16 14 55 73 73 76 73 72 72 76 96 96 89 69 82 82 83 81 73 71 63 74 81 83 87 88 82 81 85 80 67 49 36 41 45 59
166 196 129 142 199 201 216 215 222 165 158 161 150 143 141 115 111 122 128 120 112 99 101 133 136 133 120 122 116 104 99 106 108 107 98 100 106 96 90 89 85 81 74 68 59 56 61 62 61 52 29 359 3 41 71 75 80 77 76 71 72 63 71 82 81 85 87 95 89 83 94 98 99 86 81 81 81 80 80 81 86 96 77 34 50 72 81
194 199 346 55 195 174 106 107 108 134 118 112 128 123 129 128 139 146 161 163 148 129 120 122 129 130 133 137 124 121 116 114 114 115 117 117 109 101 95 89 84 79 78 72 60 58 63 59 57 51 20 353 2 37 65 72 73 77 77 86 91 82 82 83 91 92 94 94 88 95 92 85 78 78 77 79 79 81 76 79 87 76 89 89 102 107 119
184 137 47 79 118 124 121 131 157 156 141 143 139 154 154 140 147 170 164 158 154 152 154 137 129 130 132 127 130 133 136 137 132 127 119 116 115 114 114 107 88 75 69 60 53 62 71 65 62 54 9 342 359 46 70 72 66 57 63 62 75 99 107 117 102 97 97 87 111 96 90 93 80 74 76 74 72 73 75 81 89 89 89 82 81 94 94
128 91 92 112 119 127 138 156 155 160 147 151 149 144 152 155 159 160 172 163 147 137 153 150 143 138 142 139 139 128 123 122 119 115 107 103 100 106 121 123 113 106 97 90 74 82 85 80 72 57 347 342 4 46 75 79 70 64 59 53 61 87 104 107 100 103 97 96 81 88 90 87 99 94 88 79 80 74 78 74 68 79 92 91 96 104 119
113 89 81 83 133 136 123 135 152 165 163 153 146 161 169 166 171 177 169 167 171 158 151 147 150 155 151 137 131 126 121 118 111 106 102 92 79 61 68 98 104 105 101 94 85 92 96 86 73 32 343 18 63 67 88 96 91 75 60 68 76 65 64 74 74 73 70 76 81 75 82 100 106 110 103 108 100 96 90 87 83 81 96 98 98 110 113
122 99 76 107 90 119 165 194 172 183 171 172 187 178 175 178 171 168 171 159 140 157 160 161 154 145 142 136 130 125 121 114 112 112 110 101 88 84 76 84 94 99 93 86 94 87 92 96 96 23 26 46 51 49 56 88 102 107 115 100 96 97 87 70 80 77 71 63 55 64 70 82 88 90 96 101 110 120 107 97 113 111 84 87 119 83 154
170 185 189 182 171 176 189 200 199 183 189 191 173 167 172 174 170 166 156 157 154 160 170 161 152 147 140 137 133 130 127 121 124 133 133 125 118 99 85 87 94 95 94 90 83 77 71 74 64 42 35 44 49 43 37 59 81 90 95 99 95 94 88 83 84 86 78 63 53 56 62 64 55 71 71 100 111 133 141 144 121 95 74 10 57 71 95
195 203 183 184 191 188 179 169 176 184 177 181 179 182 184 172 162 169 164 158 171 176 157 140 144 146 141 138 140 148 151 154 154 149 151 142 135 125 119 107 97 93 81 51 52 58 60 75 67 63 50 41 39 36 32 39 63 84 88 96 92 88 88 82 76 78 85 89 88 83 70 63 59 60 69 73 80 80 80 82 76 74 97 68 47 64 81
212 222 196 177 187 161 157 166 174 176 178 183 183 176 176 178 167 161 174 179 153 137 143 144 144 142 146 150 153 162 163 156 152 150 147 146 137 133 125 120 118 110 103 76 23 8 334 151 98 81 66 48 34 22 40 51 48 82 96 93 93 85 78 76 75 75 64 75 84 82 85 88 82 69 60 55 57 61 68 67 60 54 58 69 80 73 81
211 207 203 183 173 165 160 164 169 170 177 177 171 168 171 174 178 181 161 140 151 154 147 144 144 155 167 172 168 159 153 155 157 156 149 137 134 130 127 126 127 128 124 120 173 308 88 100 88 73 64 43 39 20 35 70 59 66 84 89 93 91 90 81 67 73 61 56 67 77 81 74 61 48 48 53 65 63 65 66 55 54 44 64 86 94 96
207 202 198 185 172 170 171 168 164 163 159 158 171 177 176 172 166 160 162 161 157 157 156 160 166 166 152 135 139 147 148 149 148 144 141 142 144 132 136 138 144 139 134 156 178 156 138 103 88 78 68 55 39 11 48 71 73 74 83 86 87 91 89 89 88 76 78 71 68 59 56 59 80 73 54 54 59 61 66 69 68 67 65 55 74 88 87
220 188 146 139 141 142 127 136 153 165 169 172 174 170 179 165 159 150 156 164 164 157 156 153 133 135 147 148 146 143 151 155 154 148 147 146 152 144 159 170 164 165 162 156 144 150 125 106 93 83 69 52 43 38 61 76 78 83 87 90 85 82 84 86 86 89 87 89 83 75 72 72 61 61 50 45 45 51 60 68 70 57 59 62 54 53 66
202 190 185 162 164 158 151 160 169 176 185 172 163 168 166 157 159 160 159 156 165 165 156 148 148 152 159 159 156 162 168 164 161 154 149 142 131 119 103 83 186 228 175 143 144 142 130 114 98 93 86 66 66 66 73 83 87 91 92 91 89 81 81 81 81 83 73 71 81 83 76 76 72 70 62 59 49 52 43 45 59 65 73 69 66 59 70
199 189 176 173 172 166 165 163 177 181 172 173 172 161 160 162 159 158 169 170 166 165 163 161 160 164 167 169 172 166 161 163 160 154 142 133 136 148 147 169 217 197 159 144 150 139 124 122 123 105 101 90 81 93 90 88 90 94 97 96 93 91 89 80 83 79 88 85 85 75 83 85 83 75 71 67 63 56 53 56 59 59 60 71 78 85 83
202 171 167 169 167 177 182 170 142 149 174 176 167 161 166 164 166 176 174 162 163 165 166 174 174 169 172 161 146 141 151 155 151 152 163 163 163 156 150 185 183 170 164 154 145 124 112 107 103 114 117 93 97 111 107 96 91 98 97 95 94 94 93 95 91 86 78 72 76 84 85 81 87 85 73 70 69 62 62 65 65 62 58 62 70 73 84
163 165 177 182 184 180 173 166 173 178 171 170 168 171 170 171 171 157 156 163 164 162 164 168 165 143 139 143 145 152 156 152 150 152 129 44 82 166 167 168 166 176 164 144 134 121 127 123 129 141 140 119 114 111 102 96 99 101 98 103 96 99 96 100 101 102 94 98 92 86 90 94 101 103 94 80 72 67 71 71 74 72 65 68 72 75 79
176 179 180 182 190 188 175 179 170 144 161 180 174 166 165 168 167 163 163 164 165 167 163 164 159 153 153 152 150 152 155 158 155 160 144 113 97 23 57 147 163 168 160 141 141 132 137 135 145 131 127 117 111 100 100 105 100 98 103 100 102 105 106 104 99 104 109 111 113 124 122 119 108 107 111 109 99 87 77 80 79 80 81 79 80 80 80
182 188 187 191 177 160 172 169 175 187 180 146 149 157 163 163 164 168 166 168 171 172 172 169 165 161 161 166 172 175 175 172 165 153 145 144 168 216 205 161 159 156 146 142 132 133 134 144 138 126 116 114 109 102 92 95 98 99 98 99 106 107 109 109 117 112 109 114 117 119 118 114 109 107 107 99 98 93 88 82 78 68 76 71 63 61 54
189 189 169 147 159 188 196 177 122 97 120 137 144 156 166 168 172 174 177 176 175 177 176 174 171 171 171 170 157 134 119 122 140 166 171 167 172 172 158 159 150 150 146 140 127 132 141 144 122 117 116 115 108 100 95 94 94 98 97 104 105 104 101 107 106 106 112 113 111 104 105 102 104 93 86 93 105 104 99 91 84 74 72 78 79 77 78
162 153 169 181 187 156 111 114 128 125 122 137 159 179 188 184 180 173 153 159 182 175 173 177 176 176 170 163 154 148 144 128 138 80 95 116 97 126 149 148 147 149 142 139 140 143 150 137 130 126 121 116 108 104 109 107 109 105 109 102 105 101 109 110 115 117 120 117 116 116 108 102 98 104 103 94 85 82 83 87 79 73 68 68 65 65 65
155 159 154 140 132 128 129 131 138 158 170 181 188 188 185 181 160 130 141 175 209 200 180 176 171 169 171 173 174 169 164 157 160 201 187 138 134 137 143 147 152 144 136 131 133 149 151 142 138 130 127 120 113 114 121 116 115 113 112 110 108 113 117 117 123 124 114 108 108 102 105 101 97 97 91 98 93 88 79 87 88 82 70 71 67 63 67
78 100 104 105 115 131 145 162 168 176 198 198 186 180 165 161 163 137 136 177 155 170 181 181 173 172 173 177 173 171 175 174 169 174 175 153 146 146 147 149 149 140 132 137 142 150 150 144 138 133 129 122 120 124 122 121 117 112 108 112 115 116 120 120 124 119 113 116 113 114 112 117 111 112 108 101 90 88 84 80 74 75 83 88 88 84 84
113 104 108 122 136 151 158 163 186 206 189 157 140 107 118 121 131 172 192 194 180 173 167 174 178 172 166 165 176 166 160 142 81 106 133 144 143 143 146 146 142 141 140 138 142 142 146 140 135 133 126 123 124 124 121 118 117 118 118 120 117 116 121 121 115 112 118 117 117 117 117 113 119 117 109 99 97 94 91 93 98 104 103 97 104 112 113
98 110 136 136 98 92 86 101 148 121 110 118 119 125 131 143 143 102 33 17 17 146 152 153 157 165 159 159 150 145 140 128 129 135 135 139 141 141 141 139 139 139 137 137 137 136 129 126 131 131 131 131 131 130 128 129 128 127 124 124 130 127 126 117 119 121 121 121 120 119 121 118 114 109 112 110 113 108 115 118 116 110 117 118 117 116 118
106 113 100 100 99 101 109 94 85 108 126 134 136 142 152 156 154 155 160 165 173 202 177 160 169 185 170 160 154 148 143 137 133 134 131 133 136 138 136 132 130 135 133 131 130 130 134 140 138 138 134 132 132 129 131 130 128 127 131 131 129 130 126 127 126 120 126 125 126 124 124 129 134 126 125 124 126 131 132 128 122 117 119 122 127 119 109